EN

Hourly Weather Tomaszewo

Today, 7 May, Friday

Time Temperature Precipitation Wind Pressure Humidity
00:00 +5°C° 0 mm 1 mps 745 mmHg 87%
01:00 +5°C° 0 mm 1 mps 745 mmHg 86%
02:00 +5°C° 0 mm 1 mps 745 mmHg 87%
03:00 +6°C° 0 mm 1 mps 744 mmHg 87%
04:00 +6°C° 0 mm 1 mps 744 mmHg 88%
05:00 +6°C° 0.2 mm 1 mps 744 mmHg 85%
06:00 +6°C° 0.2 mm 2 mps 744 mmHg 83%
07:00 +6°C° 0.2 mm 2 mps 744 mmHg 80%
08:00 +7°C° 0.1 mm 2 mps 744 mmHg 77%
09:00 +7°C° 0.1 mm 2 mps 744 mmHg 73%
10:00 +8°C° 0.1 mm 3 mps 744 mmHg 70%
11:00 +8°C° 0.2 mm 2 mps 744 mmHg 72%
12:00 +8°C° 0.2 mm 2 mps 745 mmHg 74%
13:00 +8°C° 0.2 mm 2 mps 745 mmHg 76%
14:00 +7°C° 0.5 mm 2 mps 745 mmHg 79%
15:00 +7°C° 0.5 mm 3 mps 746 mmHg 83%
16:00 +7°C° 0.5 mm 3 mps 746 mmHg 87%
17:00 +5°C° 2 mm 4 mps 746 mmHg 89%
18:00 +4°C° 2 mm 4 mps 747 mmHg 92%
19:00 +2°C° 2 mm 5 mps 748 mmHg 94%
20:00 +2°C° 0.9 mm 5 mps 748 mmHg 93%
21:00 +2°C° 0.9 mm 5 mps 749 mmHg 92%
22:00 +2°C° 0.9 mm 5 mps 750 mmHg 91%
23:00 +1°C° 0 mm 5 mps 750 mmHg 92%

Tomorrow, 8 May, Saturday

Time Temperature Precipitation Wind Pressure Humidity
00:00 +1°C° 0 mm 4 mps 751 mmHg 93%
01:00 0°C° 0 mm 4 mps 751 mmHg 95%
02:00 0°C° 0 mm 4 mps 751 mmHg 95%
03:00 0°C° 0 mm 5 mps 752 mmHg 95%
04:00 0°C° 0 mm 5 mps 752 mmHg 96%
05:00 +1°C° 0 mm 5 mps 752 mmHg 93%
06:00 +2°C° 0 mm 5 mps 753 mmHg 90%
07:00 +3°C° 0 mm 5 mps 753 mmHg 87%
08:00 +3°C° 0 mm 5 mps 754 mmHg 85%
09:00 +5°C° 0 mm 5 mps 754 mmHg 83%
10:00 +5°C° 0 mm 5 mps 754 mmHg 81%
11:00 +6°C° 0 mm 5 mps 755 mmHg 78%
12:00 +6°C° 0 mm 5 mps 755 mmHg 75%
13:00 +7°C° 0 mm 5 mps 755 mmHg 73%
14:00 +7°C° 0 mm 5 mps 755 mmHg 70%
15:00 +8°C° 0 mm 4 mps 755 mmHg 67%
16:00 +8°C° 0 mm 4 mps 755 mmHg 63%
17:00 +8°C° 0.1 mm 3 mps 755 mmHg 66%
18:00 +8°C° 0.1 mm 2 mps 755 mmHg 69%
19:00 +8°C° 0.1 mm 1 mps 755 mmHg 72%
20:00 +6°C° 0 mm 2 mps 755 mmHg 75%
21:00 +5°C° 0 mm 2 mps 756 mmHg 79%
22:00 +3°C° 0 mm 3 mps 756 mmHg 82%
23:00 +3°C° 0 mm 3 mps 756 mmHg 82%

Day after tomorrow, 9 May, Sunday

Time Temperature Precipitation Wind Pressure Humidity
00:00 +3°C° 0 mm 3 mps 756 mmHg 81%
01:00 +2°C° 0 mm 3 mps 756 mmHg 81%
02:00 +2°C° 0 mm 3 mps 756 mmHg 82%
03:00 +2°C° 0 mm 3 mps 755 mmHg 83%
04:00 +2°C° 0 mm 3 mps 755 mmHg 84%
05:00 +4°C° 0 mm 4 mps 755 mmHg 79%
06:00 +6°C° 0 mm 5 mps 755 mmHg 75%
07:00 +8°C° 0 mm 5 mps 755 mmHg 71%
08:00 +10°C° 0 mm 6 mps 754 mmHg 67%
09:00 +13°C° 0 mm 6 mps 754 mmHg 64%
10:00 +15°C° 0 mm 6 mps 754 mmHg 60%
11:00 +15°C° 0 mm 7 mps 754 mmHg 57%
12:00 +16°C° 0 mm 7 mps 754 mmHg 55%
13:00 +17°C° 0 mm 7 mps 754 mmHg 52%
14:00 +19°C° 0 mm 6 mps 753 mmHg 56%
15:00 +19°C° 0 mm 6 mps 753 mmHg 59%
16:00 +19°C° 0 mm 5 mps 753 mmHg 62%
17:00 +17°C° 0 mm 5 mps 753 mmHg 67%
18:00 +15°C° 0 mm 5 mps 753 mmHg 72%
19:00 +14°C° 0 mm 4 mps 752 mmHg 77%
20:00 +13°C° 0 mm 4 mps 753 mmHg 78%
21:00 +12°C° 0 mm 4 mps 753 mmHg 80%
22:00 +11°C° 0 mm 4 mps 753 mmHg 82%
23:00 +10°C° 0 mm 4 mps 753 mmHg 83%

10 May, Monday

Time Temperature Precipitation Wind Pressure Humidity
00:00 +10°C° 0 mm 4 mps 753 mmHg 85%
01:00 +8°C° 0 mm 4 mps 753 mmHg 86%
02:00 +8°C° 0 mm 4 mps 753 mmHg 86%
03:00 +7°C° 0 mm 4 mps 752 mmHg 87%
04:00 +7°C° 0 mm 4 mps 752 mmHg 87%
05:00 +10°C° 0 mm 4 mps 752 mmHg 83%
06:00 +10°C° 0 mm 5 mps 752 mmHg 78%
07:00 +13°C° 0 mm 6 mps 752 mmHg 73%
08:00 +14°C° 0 mm 6 mps 752 mmHg 69%
09:00 +16°C° 0 mm 6 mps 752 mmHg 65%
10:00 +18°C° 0 mm 7 mps 751 mmHg 61%
11:00 +20°C° 0 mm 7 mps 751 mmHg 58%
12:00 +21°C° 0 mm 7 mps 751 mmHg 56%
13:00 +22°C° 0 mm 7 mps 751 mmHg 54%
14:00 +23°C° 0 mm 6 mps 751 mmHg 56%
15:00 +23°C° 0 mm 6 mps 751 mmHg 58%
16:00 +23°C° 0 mm 6 mps 751 mmHg 61%
17:00 +21°C° 0 mm 5 mps 751 mmHg 67%
18:00 +19°C° 0 mm 4 mps 751 mmHg 74%
19:00 +18°C° 0 mm 4 mps 751 mmHg 81%
20:00 +17°C° 0 mm 3 mps 751 mmHg 84%
21:00 +16°C° 0 mm 3 mps 751 mmHg 88%
22:00 +14°C° 0 mm 3 mps 751 mmHg 91%
23:00 +13°C° 0 mm 3 mps 751 mmHg 91%

11 May, Tuesday

Time Temperature Precipitation Wind Pressure Humidity
00:00 +13°C° 0 mm 4 mps 751 mmHg 91%
01:00 +13°C° 0 mm 4 mps 751 mmHg 92%
02:00 +13°C° 0 mm 4 mps 751 mmHg 91%
03:00 +13°C° 0 mm 4 mps 751 mmHg 91%
04:00 +13°C° 0 mm 4 mps 750 mmHg 90%
05:00 +14°C° 0 mm 5 mps 750 mmHg 86%
06:00 +15°C° 0 mm 5 mps 750 mmHg 82%
07:00 +16°C° 0 mm 6 mps 750 mmHg 78%
08:00 +19°C° 0 mm 6 mps 750 mmHg 73%
09:00 +21°C° 0 mm 7 mps 750 mmHg 68%
10:00 +22°C° 0 mm 7 mps 750 mmHg 63%
11:00 +23°C° 0 mm 7 mps 749 mmHg 61%
12:00 +24°C° 0 mm 7 mps 749 mmHg 59%
13:00 +26°C° 0 mm 7 mps 749 mmHg 57%
14:00 +26°C° 0 mm 7 mps 749 mmHg 59%
15:00 +26°C° 0 mm 7 mps 749 mmHg 62%
16:00 +24°C° 0 mm 6 mps 749 mmHg 64%
17:00 +23°C° 0 mm 5 mps 749 mmHg 70%
18:00 +21°C° 0 mm 4 mps 749 mmHg 75%
19:00 +20°C° 0 mm 3 mps 749 mmHg 81%
20:00 +19°C° 0 mm 3 mps 749 mmHg 83%
21:00 +18°C° 0 mm 4 mps 748 mmHg 84%
22:00 +17°C° 0 mm 4 mps 748 mmHg 86%
23:00 +16°C° 0 mm 5 mps 748 mmHg 85%

12 May, Wednesday

Time Temperature Precipitation Wind Pressure Humidity
00:00 +15°C° 0 mm 5 mps 748 mmHg 84%
01:00 +15°C° 0 mm 6 mps 747 mmHg 83%
02:00 +14°C° 0 mm 6 mps 747 mmHg 83%
03:00 +13°C° 0 mm 6 mps 747 mmHg 84%
04:00 +13°C° 0 mm 6 mps 747 mmHg 85%
05:00 +14°C° 0 mm 6 mps 747 mmHg 82%
06:00 +15°C° 0 mm 6 mps 747 mmHg 80%
07:00 +16°C° 0 mm 6 mps 747 mmHg 78%
08:00 +17°C° 0 mm 6 mps 747 mmHg 74%
09:00 +20°C° 0 mm 7 mps 747 mmHg 69%
10:00 +22°C° 0 mm 7 mps 746 mmHg 65%
11:00 +22°C° 0 mm 7 mps 746 mmHg 63%
12:00 +23°C° 0 mm 7 mps 746 mmHg 62%
13:00 +24°C° 0 mm 7 mps 746 mmHg 61%
14:00 +23°C° 0 mm 7 mps 746 mmHg 62%
15:00 +23°C° 0 mm 7 mps 746 mmHg 63%
16:00 +23°C° 0 mm 7 mps 745 mmHg 64%
17:00 +22°C° 0 mm 7 mps 745 mmHg 67%
18:00 +21°C° 0 mm 7 mps 745 mmHg 69%
19:00 +18°C° 0 mm 7 mps 744 mmHg 72%
20:00 +18°C° 0 mm 8 mps 744 mmHg 72%
21:00 +17°C° 0 mm 8 mps 744 mmHg 71%
22:00 +16°C° 0 mm 8 mps 744 mmHg 71%
23:00 +15°C° 0 mm 8 mps 744 mmHg 70%
Show more

We Need Your Consent

Meteoprog and our Service Providers may store and access personal data such as cookies, device identifiers or other similar technologies on your device and process such data to personalise content and ads, as well as provide social media features and to analyse the traffic.

  • Store and/or access information on your device

    Cookies, device identifiers or other information can be stored or accessed on your device for the purposes indicated above.

  • Personalised ads and content, ad and content measurement, audience insights, and products development

    Ads and content can be personalised based on a profile. More data can be added to better personalise ads and content. Ad and content performance can be measured. Insights about the audience who saw the ads and content can be derived. Such data can be used to develop or improve user’s experience, systems and software.

By clicking ‘I Agree’ you will allow the use of indicated cookies, device identifiers, web beacons or other similar technologies. Your settings can be changed in the browser on your device.

For certain purposes, legitimate interests may be relied on, rather than consent. You can read more about this in our Privacy and Cookie Policy.